GW5134 Weather Reports


time (UTC)temp
C
wind
direction
speed
KPH
gust
KPH
rain 1hr
cm
rain 24hr
cm
rain mn
cm
humidity
%
barometer
mb
20260510093718 7 2 0.0 0.0 0.00 0.00 0.00 94 1015.6
20260510093216 7 335 0.0 0.0 0.00 0.00 0.00 94 1015.5
20260510092712 7 344 0.0 0.0 0.00 0.00 0.00 94 1015.5
20260510092208 7 29 0.0 0.0 0.00 0.00 0.00 94 1015.5
20260510091704 7 260 0.0 0.0 0.00 0.00 0.00 93 1015.3
20260510091200 7 344 0.0 0.0 0.00 0.00 0.00 94 1015.3
20260510090657 7 2 0.0 0.0 0.00 0.00 0.00 94 1014.9
20260510090154 7 28 0.0 0.0 0.00 0.00 0.00 94 1015.2
20260510085649 7 84 0.0 0.0 0.00 0.00 0.00 94 1015.2
20260510085144 7 282 0.0 0.0 0.00 0.00 0.00 93 1014.8
20260510084641 7 246 0.0 0.0 0.00 0.00 0.00 93 1015.0
20260510084137 7 30 0.0 0.0 0.00 0.00 0.00 93 1015.0
20260510083634 7 263 0.0 0.0 0.00 0.00 0.00 93 1015.0
20260510083131 7 20 0.0 0.0 0.00 0.00 0.00 93 1014.9
20260510082627 7 64 0.0 0.0 0.00 0.00 0.00 93 1014.9
20260510082123 7 87 0.0 0.0 0.00 0.00 0.00 93 1014.9
20260510081624 7 111 0.0 0.0 0.00 0.00 0.00 94 1015.0
20260510081120 7 16 0.0 0.0 0.00 0.00 0.00 93 1014.9
20260510080619 7 352 0.0 0.0 0.00 0.00 0.00 93 1014.8
20260510080116 8 321 0.0 0.0 0.00 0.00 0.00 93 1015.0
20260510075613 8 248 0.0 0.0 0.00 0.00 0.00 93 1015.0
20260510075110 7 36 0.0 0.0 0.00 0.00 0.00 93 1014.7
20260510074607 7 54 0.0 0.0 0.00 0.00 0.00 93 1014.9
20260510074103 7 266 0.0 0.0 0.00 0.00 0.00 93 1014.8
20260510073559 7 309 0.0 0.0 0.00 0.00 0.00 93 1014.8
20260510073056 6 9 0.0 0.0 0.00 0.00 0.00 93 1014.9
20260510072552 7 323 0.0 0.0 0.00 0.00 0.00 93 1014.9
20260510072048 7 95 0.0 0.0 0.00 0.00 0.00 93 1015.2
20260510071544 7 346 0.0 0.0 0.00 0.00 0.00 93 1014.9
20260510071043 7 67 0.0 1.6 0.00 0.00 0.00 93 1014.8
20260510070539 7 200 0.0 0.0 0.00 0.00 0.00 93 1015.0
20260510070036 7 252 0.0 0.0 0.00 0.00 0.00 93 1014.9
20260510065533 7 131 0.0 0.0 0.00 0.00 0.00 93 1014.8
20260510065028 7 297 0.0 0.0 0.00 0.00 0.00 92 1014.8
20260510064525 7 204 0.0 0.0 0.00 0.00 0.00 93 1014.9
20260510064022 7 22 0.0 0.0 0.00 0.00 0.00 92 1015.0
20260510063519 7 265 0.0 0.0 0.00 0.00 0.00 92 1015.3
20260510063017 7 202 0.0 0.0 0.00 0.00 0.00 92 1014.8
20260510062512 7 201 0.0 0.0 0.00 0.00 0.00 92 1014.9
20260510062007 7 306 0.0 0.0 0.00 0.00 0.00 92 1014.9
20260510061505 7 261 0.0 0.0 0.00 0.00 0.00 92 1015.0
20260510061001 7 243 0.0 0.0 0.00 0.00 0.00 92 1014.9
20260510060457 7 242 0.0 0.0 0.00 0.00 0.00 92 1014.9
20260510055953 7 90 0.0 0.0 0.00 0.00 0.00 92 1015.2
20260510055449 7 265 0.0 1.6 0.00 0.00 0.00 92 1015.2
20260510054948 7 331 0.0 0.0 0.00 0.00 0.00 92 1015.0
20260510054442 7 310 0.0 0.0 0.00 0.00 0.00 92 1015.3
20260510053938 7 244 0.0 0.0 0.00 0.00 0.00 92 1015.3
20260510053433 7 207 0.0 1.6 0.00 0.00 0.00 92 1015.4
20260510052930 7 248 0.0 0.0 0.00 0.00 0.00 92 1015.5
20260510052426 7 137 0.0 0.0 0.00 0.00 0.00 92 1015.5
20260510051922 8 244 0.0 0.0 0.00 0.00 0.00 91 1015.4
20260510051419 7 221 0.0 0.0 0.00 0.00 0.00 92 1015.3
20260510050915 8 155 0.0 0.0 0.00 0.00 0.00 92 1015.5
20260510050412 8 220 0.0 0.0 0.00 0.00 0.00 91 1015.3
20260510045909 8 348 0.0 0.0 0.00 0.00 0.00 91 1015.4
20260510045406 8 348 0.0 0.0 0.00 0.00 0.00 91 1015.3
20260510044903 -17 0.0 0.0 0.00 0.00 0.00 1015.2
20260510044400 8 103 0.0 0.0 0.00 0.00 0.00 92 1015.2
20260510043857 8 103 0.0 0.0 0.00 0.00 0.00 92 1015.3
20260510043352 8 85 0.0 0.0 0.00 0.00 0.00 92 1015.0
20260510042851 8 358 0.0 0.0 0.00 0.00 0.00 91 1015.2
20260510042346 8 6 0.0 0.0 0.00 0.00 0.00 91 1015.2
20260510041842 7 340 0.0 0.0 0.00 0.00 0.00 91 1015.0
20260510041340 8 237 0.0 0.0 0.00 0.00 0.00 91 1014.7
20260510040837 -17 0.0 0.0 0.00 0.00 0.00 1014.9
20260510040334 -17 0.0 0.0 0.00 0.00 0.00 1014.8
20260510035829 -17 0.0 0.0 0.00 0.00 0.00 1014.7
20260510035325 8 10 0.0 0.0 0.00 0.00 0.00 90 1014.9
20260510034821 8 10 0.0 0.0 0.00 0.00 0.00 90 1014.8
20260510034319 8 338 0.0 0.0 0.00 0.00 0.00 90 1014.6
20260510033815 8 318 0.0 0.0 0.00 0.00 0.00 90 1014.6
20260510033313 9 251 0.0 0.0 0.00 0.00 0.00 90 1014.4
20260510032809 8 108 0.0 0.0 0.00 0.00 0.00 91 1014.5
20260510032306 8 2 0.0 0.0 0.00 0.00 0.00 90 1014.7
20260510031801 8 101 0.0 0.0 0.00 0.00 0.00 91 1014.5
20260510031258 8 75 0.0 0.0 0.00 0.00 0.00 90 1014.6
20260510030757 8 337 0.0 0.0 0.00 0.00 0.00 90 1014.5
20260510030254 8 10 0.0 0.0 0.00 0.00 0.00 89 1014.3
20260510025751 8 349 0.0 0.0 0.00 0.00 0.00 89 1014.4
20260510025249 8 344 0.0 0.0 0.00 0.00 0.00 88 1014.5
20260510024745 8 290 0.0 0.0 0.00 0.00 0.00 88 1014.4
20260510024242 8 68 0.0 0.0 0.00 0.00 0.00 88 1014.4
20260510023738 9 95 0.0 0.0 0.00 0.00 0.00 88 1014.2
20260510023235 9 217 0.0 0.0 0.00 0.00 0.00 88 1014.2
20260510022731 9 257 0.0 0.0 0.00 0.00 0.00 87 1014.3
20260510022231 10 250 0.0 1.6 0.00 0.00 0.00 86 1014.2
20260510021726 10 152 1.6 1.6 0.00 0.00 0.00 87 1014.1
20260510021224 10 120 0.0 0.0 0.00 0.00 0.00 87 1014.1
20260510020719 10 352 0.0 0.0 0.00 0.00 0.00 87 1014.2
20260510020219 10 316 0.0 0.0 0.00 0.00 0.00 86 1014.0
20260510015715 10 335 0.0 0.0 0.00 0.00 0.00 87 1013.9
20260510015212 10 347 0.0 0.0 0.00 0.00 0.00 86 1013.9
20260510014707 10 339 0.0 0.0 0.00 0.00 0.00 86 1013.9
20260510014200 10 313 0.0 0.0 0.00 0.00 0.00 85 1013.7
20260510013659 10 334 0.0 0.0 0.00 0.00 0.00 85 1013.6
20260510013156 11 51 0.0 0.0 0.00 0.00 0.00 85 1013.6
20260510012655 11 83 0.0 0.0 0.00 0.00 0.00 85 1013.4
20260510012151 11 316 0.0 0.0 0.00 0.00 0.00 84 1013.4
20260510011646 11 9 0.0 0.0 0.00 0.00 0.00 84 1013.5
20260510011142 11 343 0.0 0.0 0.00 0.00 0.00 83 1013.4
20260510010638 12 355 0.0 0.0 0.00 0.00 0.00 82 1013.0
20260510010136 12 13 0.0 0.0 0.00 0.00 0.00 82 1013.2
20260510005631 12 322 0.0 0.0 0.00 0.00 0.00 82 1013.1
20260510005128 12 331 0.0 0.0 0.00 0.00 0.00 81 1013.1
20260510004627 12 340 0.0 0.0 0.00 0.00 0.00 80 1013.1
20260510004124 13 20 0.0 0.0 0.00 0.00 0.00 79 1013.1
20260510003621 13 292 0.0 0.0 0.00 0.00 0.00 78 1013.0
20260510003117 13 3 0.0 0.0 0.00 0.00 0.00 77 1012.6
20260510002612 14 64 0.0 0.0 0.00 0.00 0.00 76 1012.5
20260510002109 15 268 0.0 0.0 0.00 0.00 0.00 74 1012.4
20260510001606 15 93 0.0 0.0 0.00 0.00 0.00 71 1012.4
20260510001105 15 102 0.0 1.6 0.00 0.00 0.00 72 1012.4
20260510000605 16 80 0.0 0.0 0.00 0.00 0.00 69 1012.5
20260509235558 17 102 1.6 3.2 0.00 0.00 0.00 62 1012.0
20260509235055 17 47 0.0 3.2 0.00 0.00 0.00 61 1012.3
20260509234551 17 115 0.0 6.4 0.00 0.00 0.00 61 1012.2
20260509234049 17 331 0.0 0.0 0.00 0.00 0.00 62 1012.3
20260509233546 17 222 1.6 3.2 0.00 0.00 0.00 61 1012.1
20260509233044 18 231 1.6 14.5 0.00 0.00 0.00 63 1012.2
20260509232540 18 262 9.7 12.9 0.00 0.00 0.00 58 1012.0
20260509232037 18 217 0.0 6.4 0.00 0.00 0.00 59 1012.2
20260509231533 18 77 0.0 11.3 0.00 0.00 0.00 59 1012.1
20260509231031 18 261 1.6 4.8 0.00 0.00 0.00 59 1012.1
20260509230528 19 304 3.2 6.4 0.00 0.00 0.00 58 1012.2
20260509230025 19 324 4.8 6.4 0.00 0.00 0.00 58 1012.3
20260509225520 18 304 4.8 14.5 0.00 0.00 0.00 58 1012.4
20260509225016 19 260 9.7 16.1 0.00 0.00 0.00 58 1012.3
20260509224512 19 242 9.7 16.1 0.00 0.00 0.00 58 1012.4
20260509224009 19 239 1.6 6.4 0.00 0.00 0.00 56 1012.2
20260509223505 19 323 6.4 11.3 0.00 0.00 0.00 56 1012.4
20260509223003 19 268 6.4 6.4 0.00 0.00 0.00 59 1012.2
20260509222458 19 220 3.2 12.9 0.00 0.00 0.00 56 1012.4
20260509221955 19 208 3.2 11.3 0.00 0.00 0.00 55 1012.5
20260509221451 19 255 3.2 4.8 0.00 0.00 0.00 56 1012.4
20260509220947 19 306 9.7 12.9 0.00 0.00 0.00 57 1012.5
20260509220443 19 207 1.6 12.9 0.00 0.00 0.00 57 1012.9
20260509215939 19 242 8.0 20.9 0.00 0.00 0.00 55 1012.9
20260509215435 19 276 1.6 9.7 0.00 0.00 0.00 59 1012.6
20260509214932 19 257 6.4 9.7 0.00 0.00 0.00 59 1012.6
20260509214430 18 262 1.6 6.4 0.00 0.00 0.00 60 1012.9
20260509213926 18 206 8.0 9.7 0.00 0.00 0.00 60 1012.8
20260509213422 18 228 6.4 9.7 0.00 0.00 0.00 60 1013.0
20260509212920 18 106 3.2 12.9 0.00 0.00 0.00 60 1012.8
20260509212417 18 304 1.6 6.4 0.00 0.00 0.00 60 1012.6
20260509211913 18 171 3.2 16.1 0.00 0.00 0.00 58 1012.6
20260509211409 18 48 3.2 6.4 0.00 0.00 0.00 60 1012.4
20260509210905 18 219 3.2 4.8 0.00 0.00 0.00 61 1012.3
20260509210403 20 249 8.0 9.7 0.00 0.00 0.00 58 1012.4
20260509205858 19 316 6.4 9.7 0.00 0.00 0.00 59 1012.3
20260509205353 18 237 6.4 11.3 0.00 0.00 0.00 62 1012.4
20260509204850 18 305 3.2 4.8 0.00 0.00 0.00 62 1012.3
20260509204346 18 230 8.0 17.7 0.00 0.00 0.00 60 1012.3
20260509203842 18 112 6.4 11.3 0.00 0.00 0.00 58 1012.3
20260509203338 19 288 4.8 11.3 0.00 0.00 0.00 58 1012.6
20260509202836 19 223 3.2 11.3 0.00 0.00 0.00 58 1012.2
20260509202332 18 241 14.5 16.1 0.00 0.00 0.00 61 1012.4
20260509201831 18 216 6.4 6.4 0.00 0.00 0.00 62 1012.4
20260509201328 18 219 12.9 14.5 0.00 0.00 0.00 61 1012.5
20260509200824 18 260 0.0 11.3 0.00 0.00 0.00 63 1012.5
20260509200320 18 220 9.7 12.9 0.00 0.00 0.00 62 1012.6
20260509195816 18 219 8.0 11.3 0.00 0.00 0.00 61 1012.6
20260509195311 18 253 6.4 6.4 0.00 0.00 0.00 61 1012.4
20260509194811 18 276 0.0 6.4 0.00 0.00 0.00 62 1012.8
20260509194307 18 211 6.4 6.4 0.00 0.00 0.00 62 1012.8
20260509193804 18 231 4.8 11.3 0.00 0.00 0.00 64 1012.6
20260509193304 18 256 11.3 16.1 0.00 0.00 0.00 62 1012.8
20260509192800 18 280 4.8 9.7 0.00 0.00 0.00 61 1012.6
20260509192256 18 289 3.2 14.5 0.00 0.00 0.00 59 1012.8
20260509191751 18 211 8.0 12.9 0.00 0.00 0.00 60 1012.6
20260509191248 18 285 9.7 11.3 0.00 0.00 0.00 61 1012.9
20260509190743 18 301 14.5 20.9 0.00 0.00 0.00 57 1012.4
20260509190241 18 219 9.7 20.9 0.00 0.00 0.00 62 1012.5
20260509185738 18 311 6.4 12.9 0.00 0.00 0.00 61 1012.8
20260509185234 18 253 4.8 12.9 0.00 0.00 0.00 59 1012.6
20260509184732 18 221 6.4 16.1 0.00 0.00 0.00 59 1012.8
20260509184229 17 245 6.4 16.1 0.00 0.00 0.00 61 1012.5
20260509183725 18 247 4.8 17.7 0.00 0.00 0.00 59 1012.8
20260509183221 17 255 9.7 17.7 0.00 0.00 0.00 59 1012.9
20260509182716 17 274 6.4 17.7 0.00 0.00 0.00 61 1012.6
20260509182214 17 246 12.9 17.7 0.00 0.00 0.00 61 1012.5
20260509181712 17 240 3.2 14.5 0.00 0.00 0.00 60 1012.6
20260509181209 17 207 6.4 11.3 0.00 0.00 0.00 61 1012.9
20260509180706 17 227 6.4 12.9 0.00 0.00 0.00 61 1012.8
20260509180202 17 252 4.8 12.9 0.00 0.00 0.00 58 1012.9
20260509175659 17 249 4.8 9.7 0.00 0.00 0.00 64 1012.8
20260509175155 17 318 14.5 24.1 0.00 0.00 0.00 61 1013.1
20260509174651 17 223 8.0 22.5 0.00 0.00 0.00 62 1012.8
20260509174150 18 203 8.0 17.7 0.00 0.00 0.00 57 1012.6
20260509173647 18 217 8.0 11.3 0.00 0.00 0.00 60 1012.8
20260509173143 18 237 11.3 14.5 0.00 0.00 0.00 58 1012.8
20260509172639 17 86 3.2 9.7 0.00 0.00 0.00 55 1012.6
20260509172136 18 327 1.6 6.4 0.00 0.00 0.00 55 1012.6
20260509171631 17 220 1.6 6.4 0.00 0.00 0.00 60 1013.0
20260509171128 17 192 8.0 14.5 0.00 0.00 0.00 55 1012.9
20260509170624 17 217 11.3 20.9 0.00 0.00 0.00 60 1012.8
20260509170121 17 262 8.0 16.1 0.00 0.00 0.00 59 1013.0
20260509165619 18 204 1.6 6.4 0.00 0.00 0.00 54 1013.0
20260509165115 17 310 0.0 9.7 0.00 0.00 0.00 59 1013.1
20260509164611 17 240 6.4 12.9 0.00 0.00 0.00 56 1013.1
20260509164106 17 237 4.8 12.9 0.00 0.00 0.00 60 1013.0
20260509163605 17 137 11.3 17.7 0.00 0.00 0.00 56 1012.9
20260509163100 17 219 11.3 16.1 0.00 0.00 0.00 56 1013.0
20260509162557 17 100 14.5 16.1 0.00 0.00 0.00 59 1013.1
20260509162053 17 226 0.0 11.3 0.00 0.00 0.00 60 1013.0
20260509161545 16 254 0.0 0.0 0.00 0.00 0.00 56 1013.0
20260509161045 16 217 0.0 3.2 0.00 0.00 0.00 63 1013.0
20260509160541 16 225 3.2 6.4 0.00 0.00 0.00 57 1013.2
20260509160036 16 212 3.2 3.2 0.00 0.00 0.00 59 1012.9
20260509155533 16 350 0.0 1.6 0.00 0.00 0.00 61 1013.1
20260509155029 15 230 3.2 6.4 0.00 0.00 0.00 60 1013.1
20260509154525 15 220 3.2 4.8 0.00 0.00 0.00 62 1013.0
20260509154023 16 229 3.2 9.7 0.00 0.00 0.00 64 1013.2
20260509153520 16 129 4.8 11.3 0.00 0.00 0.00 59 1013.4
20260509153017 16 138 1.6 6.4 0.00 0.00 0.00 63 1013.3
20260509152512 16 233 1.6 3.2 0.00 0.00 0.00 64 1013.4
20260509152009 15 125 1.6 6.4 0.00 0.00 0.00 64 1013.3
20260509151506 15 122 1.6 3.2 0.00 0.00 0.00 67 1013.4
20260509151004 15 105 11.3 11.3 0.00 0.00 0.00 67 1013.4
20260509150501 15 107 4.8 6.4 0.00 0.00 0.00 70 1013.4
20260509145959 15 102 3.2 4.8 0.00 0.00 0.00 69 1013.7
20260509145455 15 98 0.0 0.0 0.00 0.00 0.00 67 1013.8
20260509144949 15 226 1.6 4.8 0.00 0.00 0.00 66 1013.9
20260509144447 15 229 0.0 0.0 0.00 0.00 0.00 67 1013.7
20260509143944 15 37 0.0 3.2 0.00 0.00 0.00 67 1013.6
20260509143441 15 103 1.6 4.8 0.00 0.00 0.00 67 1013.5
20260509142937 15 155 3.2 6.4 0.00 0.00 0.00 67 1013.3
20260509142434 14 133 1.6 4.8 0.00 0.00 0.00 68 1013.4
20260509141929 15 111 4.8 6.4 0.00 0.00 0.00 71 1013.4
20260509141427 15 306 0.0 3.2 0.00 0.00 0.00 68 1013.3
20260509140923 15 103 3.2 3.2 0.00 0.00 0.00 68 1013.3
20260509140420 15 350 0.0 1.6 0.00 0.00 0.00 68 1013.5
20260509135918 15 245 0.0 1.6 0.00 0.00 0.00 67 1013.6
20260509135415 15 22 0.0 3.2 0.00 0.00 0.00 69 1013.3
20260509134913 14 88 0.0 1.6 0.00 0.00 0.00 71 1013.6
20260509134410 14 284 1.6 3.2 0.00 0.00 0.00 72 1013.7
20260509133907 13 70 3.2 4.8 0.00 0.00 0.00 73 1013.4
20260509133403 13 156 0.0 0.0 0.00 0.00 0.00 72 1013.7
20260509132902 13 98 1.6 3.2 0.00 0.00 0.00 73 1013.9
20260509132400 13 101 0.0 3.2 0.00 0.00 0.00 74 1013.8
20260509131857 13 113 1.6 3.2 0.00 0.00 0.00 73 1013.9
20260509131354 13 222 0.0 1.6 0.00 0.00 0.00 74 1013.8
20260509130850 13 118 0.0 1.6 0.00 0.00 0.00 74 1014.0
20260509130345 12 207 1.6 1.6 0.00 0.00 0.00 76 1014.0
20260509125842 12 90 0.0 0.0 0.00 0.00 0.00 75 1013.7
20260509125339 12 274 0.0 0.0 0.00 0.00 0.00 79 1013.8
20260509124835 12 302 0.0 0.0 0.00 0.00 0.00 79 1013.7
20260509124332 12 302 0.0 0.0 0.00 0.00 0.00 79 1013.9
20260509123830 11 319 0.0 0.0 0.00 0.00 0.00 81 1013.9
20260509123327 11 312 0.0 0.0 0.00 0.00 0.00 83 1013.8
20260509122822 11 252 0.0 0.0 0.00 0.00 0.00 85 1014.0
20260509122320 11 270 0.0 0.0 0.00 0.00 0.00 84 1014.0
20260509121817 10 337 0.0 0.0 0.00 0.00 0.00 85 1014.0
20260509121314 10 97 0.0 0.0 0.00 0.00 0.00 85 1014.0
20260509120812 10 106 0.0 0.0 0.00 0.00 0.00 85 1013.8
20260509120310 10 83 0.0 0.0 0.00 0.00 0.00 85 1013.7
20260509115808 10 110 0.0 0.0 0.00 0.00 0.00 86 1013.7
20260509115307 10 98 0.0 0.0 0.00 0.00 0.00 86 1013.8
20260509114802 10 258 0.0 0.0 0.00 0.00 0.00 86 1013.9
20260509114301 10 343 0.0 0.0 0.00 0.00 0.00 86 1014.0
20260509113759 10 307 0.0 0.0 0.00 0.00 0.00 87 1014.0
20260509113256 9 324 0.0 0.0 0.00 0.00 0.00 87 1013.8
20260509112753 9 273 0.0 0.0 0.00 0.00 0.00 87 1013.8
20260509112250 9 333 0.0 0.0 0.00 0.00 0.00 87 1013.9
20260509111747 9 70 0.0 0.0 0.00 0.00 0.00 87 1013.7
20260509111244 9 322 0.0 0.0 0.00 0.00 0.00 87 1013.7
20260509110741 9 329 0.0 0.0 0.00 0.00 0.00 87 1013.9
20260509110238 9 100 0.0 0.0 0.00 0.00 0.00 87 1013.8
20260509105736 9 106 0.0 0.0 0.00 0.00 0.00 87 1013.9
20260509105233 9 115 0.0 0.0 0.00 0.00 0.00 86 1013.7
20260509104730 9 108 0.0 0.0 0.00 0.00 0.00 86 1013.7
20260509104227 8 354 0.0 0.0 0.00 0.00 0.00 87 1013.7
20260509103725 8 329 0.0 0.0 0.00 0.00 0.00 87 1013.7
20260509103222 8 343 0.0 0.0 0.00 0.00 0.00 87 1013.5
20260509102720 8 82 0.0 0.0 0.00 0.00 0.00 87 1013.6
20260509102217 8 320 0.0 0.0 0.00 0.00 0.00 86 1013.4
20260509101713 9 336 0.0 0.0 0.00 0.00 0.00 86 1013.6
20260509101209 9 131 0.0 0.0 0.00 0.00 0.00 86 1013.4
20260509100708 9 131 0.0 0.0 0.00 0.00 0.00 85 1013.7
20260509100204 9 100 0.0 0.0 0.00 0.00 0.00 85 1013.5
20260509095701 9 124 0.0 0.0 0.00 0.00 0.00 84 1013.6
20260509095158 9 108 0.0 0.0 0.00 0.00 0.00 85 1013.7
20260509094655 9 130 0.0 0.0 0.00 0.00 0.00 84 1013.6
20260509094151 9 260 0.0 0.0 0.00 0.00 0.00 84 1013.7